Weather in Pravaya Khava

Russia / Voronezh Oblast     51°43′26″N   39°47′03″E
temp.,
°C
wind,
m/s
gust,
m/s
humid.,
%
clouds,
%
prec.,
mm/h
press.,
hPa
HPBL,
m
19 september, sun
sun1900:00+7e6137985 0.4 1020435
03:00+8ese71675100 0.4 1018444
06:00+9ese71663100 0.1 1017556
09:00+9ese91762100 1.8 1016519
12:00+11ese101759100 0.2 1015708
15:00+12ese91466100 0.6 1014707
18:00+11ese91783100 2.8 1013696
21:00+10ese102080100 6.5 1011746
20 september, mon
mon2000:00+12se101782100 1.9 1010806
03:00+12se81588100 2.3 1009755
06:00+10se71391100 0.1 1009494
09:00+12ese71190100 0.1 1009394
12:00+15se71086100 1.8 1008728
15:00+16ese81180100 2.9 1008817
18:00+13wsw368046 1.2 1010273
21:00+10s1281100 1.3 101275
21 september, tue
tue2100:00+10sse2380100 0.0 101268
03:00+10sse2480100 0.1 1012139
06:00+10s248292 0.0 1012107
09:00+12ssw356478 0.0 1012551
12:00+13sw4559100 0.0 1012934
15:00+13sw4567100 0.0 1012826
18:00+12wsw2474100 0.0 1013246
21:00+11wsw2484100 0.1 1013248
22 september, wed
wed2200:00+10nw1389100 0.6 1013182
03:00+9wnw1289100 1.3 1013136
06:00+9wnw229089 1.1 1014129
09:00+10wsw227893 1.2 1015699
12:00+11w3271100 0.4 1015796
15:00+12wsw225998 0.4 10151047
18:00+10wnw2368100 0.0 1016173
21:00+8wnw227665 0.0 101754
23 september, thu
thu2300:00+8nw2278100 0.0 101772
03:00+8nw1177100 0.0 101648
06:00+8w1176100 0.0 101615
09:00+9ese0169100 0.0 1015162
12:00+12sse1259100 0.0 1015600
15:00+14ese2349100 0.0 10141236
18:00+13ene1155100 0.0 101315
21:00+12n225998 0.0 101330